Presure
339 333 328 324 322 328 323 319 325 324 322 321 321 321 319 319 321 323 322 326 331 339 335 335 337 339 340 340 344 348 350 348 351 354 356 360 371 367 369 392 379 363 373 367 349 342 350 332 345 380 376 357 355 359
316 313 332 323 318 327 321 311 310 308 308 305 303 315 318 321 325 331 333 337 345 360 363 354 339 329 330 328 337 335 342 333 336 336 339 345 339 339 349 396 362 388 347 353 342 351 359 330 333 346 365 339 331 323
327 319 325 327 313 307 301 299 296 297 312 308 306 305 310 313 317 318 330 342 344 353 353 351 347 353 356 347 344 359 384 443 386 380 387 412 368 345 334 344 359 357 349 339 342 329 331 326 332 337 346 328 340 338
337 319 307 298 293 289 291 307 313 303 298 303 306 308 323 325 338 367 409 400 399 376 384 384 400 413 422 388 414 401 415 401 382 395 414 356 338 333 325 325 340 328 342 336 338 343 336 330 324 315 314 314 320 313
292 288 289 294 295 307 311 301 300 297 301 308 317 318 331 339 413 430 414 396 394 406 425 394 382 376 388 380 365 377 383 379 362 350 339 321 317 320 325 325 340 327 340 344 341 339 343 346 348 373 379 373 331 325
298 296 299 304 308 303 295 292 295 301 309 313 319 328 332 351 420 409 388 391 393 389 379 362 364 369 373 358 361 351 341 340 324 324 319 319 321 336 341 337 338 313 323 334 336 326 359 317 350 354 350 343 351 361
303 306 306 303 295 290 294 297 302 304 312 316 326 328 342 370 377 393 391 387 379 375 374 353 351 364 352 352 336 338 337 329 323 331 330 331 327 350 323 321 301 313 313 330 327 330 338 319 347 320 325 320 329 334
298 297 296 296 297 297 299 306 305 318 313 322 328 329 354 375 379 385 392 398 379 387 360 352 355 364 365 337 332 327 329 327 334 317 320 333 356 349 307 295 291 309 323 331 337 353 334 330 347 330 329 314 323 308
309 307 307 306 305 306 313 318 325 321 323 330 327 348 370 387 396 399 398 401 402 350 369 367 368 365 375 343 342 345 326 322 332 333 337 356 318 341 306 348 351 347 353 335 346 317 333 322 332 311 311 309 284 303
321 323 327 321 322 320 316 324 328 325 332 329 345 382 410 415 424 404 409 416 421 377 375 366 390 378 370 365 368 346 312 307 303 308 315 314 311 311 314 318 316 320 349 353 399 345 324 317 279 285 291 272 302 286
324 322 323 313 312 319 326 328 332 331 333 354 409 426 402 340 328 318 314 311 309 305 306 308 310 311 309 297 296 300 297 301 301 287 290 291 287 289 300 316 318 314 315 314 306 335 313 287 288 292 284 295 302 290
331 334 328 316 321 332 331 336 331 346 367 419 384 328 318 308 309 304 301 308 311 309 307 305 297 292 284 286 278 284 279 285 283 286 286 290 286 298 297 310 321 333 342 341 335 320 336 295 275 284 275 281 283 274
348 341 325 326 336 340 334 336 353 380 391 337 318 315 307 308 325 318 304 307 304 293 293 282 282 275 289 289 279 278 273 282 286 282 278 283 278 289 298 302 332 356 383 381 319 302 286 286 274 270 269 271 272 262
354 313 336 339 347 337 345 347 359 357 331 313 308 310 313 324 316 312 307 298 289 286 275 285 286 284 275 278 280 279 273 274 280 282 275 274 279 290 295 296 285 276 290 286 286 286 286 278 271 265 273 260 259 265
336 350 351 331 343 350 339 340 338 322 302 303 304 320 321 317 311 301 296 287 285 284 280 278 279 280 281 282 279 280 278 277 278 279 285 283 281 296 285 277 269 278 269 278 274 286 272 251 272 274 263 256 253 266
349 363 351 335 343 333 330 335 314 306 301 303 316 311 306 300 289 292 277 284 277 276 284 273 267 265 264 271 271 279 273 271 273 271 269 272 275 284 297 279 270 269 280 270 279 258 285 261 265 267 257 258 270 270
275 362 341 347 331 272 256 330 310 294 301 307 302 302 294 291 282 281 274 275 275 279 285 279 269 268 273 264 275 274 268 270 264 265 260 263 264 268 268 274 294 298 281 280 275 286 290 267 261 264 272 281 259 253
349 346 344 339 333 330 334 340 306 297 304 297 299 294 284 268 279 269 277 276 275 281 280 270 257 269 258 271 273 271 266 262 259 254 257 255 259 259 256 259 264 271 293 295 288 276 276 276 275 272 245 242 247 241
344 345 349 349 355 351 341 311 312 306 302 297 298 295 291 270 273 273 271 277 273 272 268 263 269 273 268 273 271 270 265 262 256 252 256 254 250 255 256 256 266 266 265 262 261 257 251 250 244 247 250 241 235 235
290 319 318 334 328 317 319 291 325 307 278 273 281 292 286 272 268 271 263 268 274 268 269 266 272 268 274 272 262 268 265 262 262 256 247 249 253 254 250 258 260 268 259 255 251 240 241 248 248 239 240 238 240 236
296 294 289 322 290 307 285 278 293 288 290 288 278 267 262 272 276 276 268 272 272 264 266 266 270 271 268 267 261 260 259 257 255 254 250 252 253 253 264 262 262 269 264 261 251 248 244 234 243 244 238 235 236 241
306 300 293 293 295 299 271 277 275 272 288 295 286 273 277 279 276 276 280 278 276 271 270 270 267 267 263 259 258 258 258 258 252 251 250 250 250 252 260 265 262 259 260 269 257 272 255 249 247 237 238 237 237 236
265 306 302 300 295 293 290 285 284 283 271 283 285 276 285 277 275 276 282 287 284 270 272 271 271 269 266 261 261 260 254 254 255 251 250 250 253 259 259 261 260 263 254 250 267 261 260 272 272 256 244 245 245 241
290 285 278 290 315 303 296 288 287 285 280 278 277 273 271 266 279 269 280 277 277 277 277 279 262 266 263 259 260 259 262 262 255 249 255 262 261 262 267 260 266 273 271 264 269 269 266 265 265 267 271 272 267 240
308 295 291 285 287 288 330 330 311 300 292 287 284 282 280 283 275 271 272 273 271 270 271 268 262 260 262 262 263 262 262 259 256 257 269 258 254 260 265 272 273 271 272 271 266 262 262 262 263 263 262 262 259 249
331 324 311 301 292 290 284 287 296 295 323 335 317 306 302 296 290 285 282 281 281 278 278 275 270 266 267 269 265 264 263 262 260 262 267 267 261 261 257 258 260 275 275 265 263 261 260 261 261 260 259 258 259 260
325 341 334 326 314 306 297 293 291 291 294 299 316 350 318 346 340 327 318 308 304 299 294 292 290 287 281 278 277 273 274 274 274 271 266 264 264 264 261 262 270 271 278 280 268 264 261 260 260 259 259 260 263 264
310 340 339 337 331 329 321 312 300 298 298 299 297 299 303 307 310 306 326 382 382 371 366 341 338 327 312 304 299 294 287 286 282 278 275 272 274 274 274 274 276 274 272 282 288 267 265 263 260 259 261 262 262 260
297 334 337 345 342 339 335 325 315 315 313 308 307 304 303 310 319 318 316 315 314 383 389 360 340 341 331 317 365 373 368 331 306 297 287 283 283 276 275 272 268 266 269 278 274 277 283 275 268 253 252 253 256 264
307 322 343 327 347 349 343 336 329 323 320 321 319 315 312 314 322 313 315 328 333 329 376 400 370 367 364 371 372 359 335 309 304 340 365 369 322 294 282 278 279 276 270 266 273 275 273 272 271 270 271 269 266 268
315 318 336 341 340 345 353 346 341 331 329 326 329 329 323 321 323 318 319 326 329 334 336 400 404 398 386 375 374 371 368 365 346 334 332 315 319 382 350 310 288 283 280 277 279 278 275 272 269 267 267 268 269 272
329 325 337 340 331 338 339 355 352 341 335 334 332 331 332 331 330 325 327 327 330 350 345 411 396 381 388 380 371 358 345 317 318 389 438 419 408 392 376 351 335 314 295 289 282 279 279 277 276 276 276 277 280 284
331 338 344 352 341 338 337 342 345 330 349 348 342 337 339 337 333 330 332 331 334 345 401 400 396 385 369 358 342 372 469 513 487 469 446 417 393 391 382 371 353 335 325 317 307 301 296 291 289 288 287 288 291 296
Wind_Speed
22 21 22 23 24 23 23 24 21 22 24 26 28 30 34 37 41 43 47 53 53 50 49 52 55 54 57 58 58 54 59 58 59 60 58 53 47 40 46 37 40 47 52 42 51 68 57 66 57 54 57 61 67 73
20 22 19 19 20 18 18 21 22 24 26 28 30 32 35 38 42 44 46 52 55 53 49 53 54 56 60 60 56 55 57 56 60 59 58 56 47 47 41 34 41 40 50 51 61 59 49 60 59 54 55 69 72 76
18 18 17 17 17 17 20 21 23 25 24 25 29 33 38 41 44 45 48 51 53 53 47 45 47 53 46 47 49 42 40 37 40 44 46 41 37 40 43 34 36 45 53 57 58 54 54 57 52 51 58 61 57 60
17 17 15 15 16 18 20 22 22 22 24 28 31 36 40 42 42 44 38 41 42 46 41 35 35 28 24 31 17 20 17 27 31 28 24 28 34 39 41 43 39 42 50 56 54 54 59 54 56 60 60 63 64 65
13 14 15 16 18 19 19 18 20 21 26 30 33 35 36 36 30 23 23 30 32 27 12 20 17 22 16 16 13 11 17 20 25 28 31 35 40 45 44 44 36 41 44 52 54 58 55 54 55 57 52 61 66 67
14 15 16 17 17 16 16 18 20 24 29 30 32 32 31 32 14 12 16 16 14 13 21 21 19 15 17 20 22 32 34 38 39 40 44 47 48 46 43 30 37 36 41 46 46 42 41 33 36 34 33 40 47 52
17 17 16 16 16 17 19 22 23 27 29 30 30 28 29 26 20 11 15 16 16 18 25 18 15 18 23 28 36 39 43 41 35 40 38 39 37 45 11 8 24 27 35 44 44 40 27 32 34 32 33 29 28 25
17 18 18 18 19 21 23 24 26 29 27 27 25 24 24 21 18 14 13 18 18 21 18 20 19 18 28 38 36 27 34 18 20 12 19 24 42 26 14 20 34 36 43 45 46 39 23 30 30 29 28 30 16 17
21 22 23 22 22 23 26 27 26 24 23 21 20 20 18 13 10 8 7 11 15 14 8 13 12 18 31 30 18 18 17 19 15 20 27 32 4 9 16 27 31 36 41 37 32 26 28 33 33 30 31 16 19 18
20 22 23 20 21 21 21 21 20 18 17 15 15 13 5 2 6 18 13 11 10 22 23 22 14 15 18 21 17 19 28 25 19 12 10 9 7 4 4 6 8 11 18 13 11 28 38 30 17 9 11 17 18 15
19 18 16 15 15 18 17 15 14 12 9 8 1 9 25 47 49 47 46 46 44 42 40 38 37 38 37 32 27 25 21 19 20 14 13 9 4 4 9 10 9 9 5 8 19 26 29 23 19 18 18 20 18 19
17 16 12 13 13 14 11 9 8 3 2 13 35 48 45 38 42 40 39 44 44 44 44 43 39 35 27 25 20 20 16 17 12 11 9 12 11 15 11 9 8 10 12 6 19 24 28 29 24 24 21 20 22 19
17 12 10 9 9 9 9 9 9 13 29 49 44 40 33 32 46 47 44 48 47 41 40 32 31 25 30 28 22 19 13 15 14 13 10 11 7 10 8 6 9 5 7 11 22 31 29 32 27 22 19 22 20 18
13 9 8 8 9 11 12 18 23 39 48 39 26 32 33 43 45 46 46 41 35 34 28 34 31 30 24 23 21 18 15 13 12 11 10 7 6 4 4 14 16 12 16 17 23 25 28 26 22 18 23 19 15 15
10 9 10 11 12 15 20 27 35 41 23 22 20 31 33 36 40 39 37 33 33 32 30 28 26 25 23 19 17 15 14 12 11 10 11 14 11 9 5 8 7 9 9 7 9 19 20 17 20 22 19 18 18 19
11 13 13 14 19 22 26 31 35 26 21 21 27 31 32 32 27 30 23 30 26 26 28 24 21 18 15 14 14 14 14 13 13 14 14 15 13 11 5 10 5 6 9 11 11 16 23 17 17 17 20 20 22 19
12 12 15 20 21 17 9 38 28 20 20 24 28 30 28 27 24 23 17 19 19 20 22 25 19 15 13 9 11 13 13 14 12 10 9 9 9 9 8 5 2 17 16 15 15 20 15 20 20 21 23 24 16 13
15 13 13 16 17 18 23 33 23 19 21 21 25 26 22 16 19 14 14 16 15 18 20 18 14 10 11 9 10 11 12 13 11 10 6 6 4 3 5 3 1 1 3 14 17 15 19 23 23 21 15 15 14 15
20 16 13 12 15 21 24 21 19 20 20 18 21 23 25 16 13 14 14 16 16 15 13 12 10 9 12 11 12 13 12 12 12 9 6 6 6 6 6 6 5 7 8 10 12 15 16 17 17 19 18 17 18 19
32 23 20 20 23 22 18 17 19 20 16 14 16 20 20 18 15 16 13 15 16 13 13 11 11 11 11 12 12 13 12 12 11 12 12 12 12 12 11 12 12 12 16 17 18 17 17 19 21 19 19 21 22 23
28 27 26 21 17 19 14 14 15 13 12 15 13 6 2 14 17 19 17 18 14 13 15 14 12 11 12 13 14 14 14 15 15 16 17 16 17 16 19 18 18 17 19 24 24 25 26 25 24 24 26 28 28 28
24 21 21 18 14 9 17 14 12 11 5 11 11 5 10 16 14 16 19 22 18 20 19 18 18 18 19 19 19 20 20 21 21 22 21 21 20 20 23 23 22 22 22 25 28 31 33 32 33 32 33 33 32 32
39 21 19 15 13 11 7 10 7 6 9 9 12 12 20 18 18 21 29 29 27 19 22 23 23 24 25 24 24 25 25 25 26 25 25 26 27 28 28 28 28 29 28 29 31 32 33 35 40 42 39 39 40 40
34 30 29 22 13 14 15 17 18 17 17 16 17 19 19 18 23 23 29 26 25 26 27 30 26 29 30 30 30 30 30 32 31 29 32 34 33 33 33 33 34 33 33 35 33 33 35 36 38 39 42 45 47 43
33 30 29 28 25 21 21 23 24 26 28 29 28 30 31 32 28 30 34 33 31 31 31 31 31 33 35 36 36 35 35 35 36 37 40 36 34 35 35 33 35 36 36 36 36 36 37 39 40 41 42 44 46 48
34 32 28 28 28 26 26 24 23 21 30 37 39 42 45 43 43 42 44 46 46 42 41 40 39 39 41 43 45 43 42 42 42 44 44 45 43 42 39 39 39 40 41 40 41 41 41 42 43 43 45 48 49 51
45 36 32 29 27 27 29 30 28 28 28 29 33 40 38 48 50 53 56 57 58 57 57 57 55 54 52 52 51 50 51 50 50 50 49 48 48 48 46 46 47 44 44 47 47 47 46 47 47 48 50 51 53 55
54 41 38 34 33 32 31 30 31 32 32 31 31 33 34 36 36 38 41 51 50 54 59 64 66 65 64 66 64 63 60 59 57 56 56 53 55 55 54 54 54 51 48 49 50 53 53 53 52 51 53 55 56 58
59 47 43 39 36 35 34 32 35 36 36 34 33 35 36 38 38 35 36 39 41 49 53 56 57 56 54 55 53 56 63 68 68 67 64 62 62 61 60 57 55 52 53 57 55 55 58 59 59 50 53 55 59 65
60 54 44 44 41 38 37 34 35 37 39 39 36 36 39 40 39 38 39 40 41 41 45 49 49 50 51 52 55 58 58 54 52 52 53 59 68 69 65 65 65 64 60 59 61 61 59 59 60 62 65 66 68 71
62 58 49 45 44 42 39 38 37 37 40 40 41 38 38 37 39 39 40 39 40 41 42 43 45 46 46 47 49 51 52 53 53 54 55 55 56 59 64 71 69 68 69 69 69 66 63 63 64 65 66 68 72 74
63 59 53 48 47 46 42 40 39 40 42 42 43 43 41 39 38 38 39 40 40 41 41 41 41 44 44 44 44 44 44 47 50 52 48 51 52 55 59 63 66 72 75 73 70 69 70 69 70 71 73 75 78 79
63 60 56 52 48 46 44 42 40 40 43 45 46 46 43 41 40 39 40 40 40 41 45 43 42 40 41 40 39 48 35 30 34 39 44 48 52 54 56 58 61 66 70 73 75 75 75 74 74 73 75 77 79 80
Wind_Direction
229 231 233 237 240 241 246 251 250 252 256 259 261 262 262 262 262 261 260 263 261 258 256 258 257 257 257 258 258 254 254 258 258 259 260 260 262 260 258 254 241 245 234 231 242 250 247 253 252 249 237 244 245 247
230 232 225 230 237 234 235 245 253 258 261 266 267 272 272 271 270 269 266 266 267 267 262 260 259 257 254 255 260 258 258 255 257 257 259 259 258 258 260 249 244 239 238 228 239 240 240 248 253 251 229 234 240 246
215 222 223 211 222 234 246 256 261 266 273 274 274 276 277 275 275 275 272 269 268 267 266 265 261 260 263 260 260 262 260 257 246 244 244 248 247 246 249 244 236 233 233 237 239 244 241 243 249 243 232 240 239 238
203 197 210 227 239 251 259 268 268 270 275 280 279 279 278 278 279 281 265 264 264 265 266 260 257 254 250 255 250 251 254 243 232 238 230 214 227 236 240 245 240 244 241 243 245 240 244 248 246 257 256 252 247 250
214 226 236 244 251 262 264 263 271 277 282 283 284 284 286 290 283 249 243 254 262 267 219 205 227 243 224 208 195 231 195 178 180 182 189 208 224 229 235 245 250 250 251 246 247 248 252 253 257 260 255 249 243 241
233 239 246 252 258 254 258 268 280 286 287 288 287 290 294 297 297 254 254 258 241 208 188 202 221 225 208 186 188 174 177 175 195 199 211 217 225 229 236 259 243 259 259 256 253 252 251 253 267 250 245 248 252 251
238 244 247 249 253 262 271 278 283 285 286 289 293 296 299 305 301 276 248 230 220 214 186 206 208 208 198 190 186 186 187 197 217 212 214 226 241 231 288 273 264 262 259 258 257 262 256 248 253 236 238 241 227 241
241 242 245 251 258 265 272 278 280 283 285 290 293 294 299 304 299 289 282 233 217 198 179 183 206 208 202 187 190 205 199 225 221 259 262 259 234 263 160 225 237 256 260 260 259 262 231 239 229 212 203 217 198 199
245 249 254 258 264 270 275 277 277 279 287 287 291 295 297 297 294 286 252 239 220 114 118 160 178 199 202 189 196 204 214 224 256 281 275 254 175 290 209 261 264 265 266 263 276 203 202 207 197 203 211 214 218 213
241 248 253 257 263 267 270 273 276 284 279 290 295 300 294 153 111 103 109 114 121 113 107 96 107 113 141 151 163 129 116 122 132 131 103 102 124 200 265 306 320 324 331 326 260 195 192 196 186 167 205 215 214 198
236 240 245 244 254 259 265 272 275 268 280 289 221 128 120 109 107 111 109 107 108 111 111 108 109 112 117 124 123 120 117 108 104 108 103 93 69 8 10 340 311 293 282 164 179 191 193 158 174 184 196 209 196 188
232 233 224 234 249 254 261 252 239 240 190 139 132 131 135 144 138 140 140 131 126 124 121 122 124 127 129 124 127 124 128 125 120 120 95 70 52 27 12 6 327 293 260 208 187 179 190 159 171 181 190 187 187 198
214 209 208 230 246 235 208 194 158 138 136 139 150 149 166 157 134 134 135 130 129 132 130 128 128 129 130 135 137 140 141 125 114 114 121 86 85 35 36 21 49 67 193 161 141 148 159 161 174 183 189 197 202 204
182 163 194 211 202 182 168 153 150 146 147 159 167 167 169 142 138 138 134 133 130 130 130 129 133 135 138 143 142 136 130 133 121 115 124 123 114 69 100 129 131 127 139 161 169 172 169 170 178 189 190 202 208 223
136 154 175 168 165 153 153 155 153 153 152 151 160 152 143 139 139 140 140 131 136 138 136 135 135 133 136 137 124 125 138 127 107 95 97 92 71 41 147 147 134 153 152 177 171 187 182 183 190 194 192 201 210 225
129 150 154 147 147 151 151 154 159 157 152 150 144 143 145 141 143 146 138 135 138 141 140 144 144 142 150 138 137 125 126 105 100 100 99 87 78 67 178 221 223 189 201 199 222 187 203 199 203 217 215 216 230 217
66 128 136 143 149 90 136 165 165 126 143 147 146 149 150 152 149 155 152 146 149 150 144 145 147 154 155 142 140 130 129 118 127 121 119 107 99 93 77 46 254 245 240 238 214 227 226 212 214 215 225 227 210 220
87 105 125 138 148 152 162 170 138 138 149 148 153 157 155 132 162 157 156 154 159 154 153 150 141 156 170 175 173 166 150 148 149 157 156 155 149 158 155 145 143 334 268 231 226 217 215 217 221 220 210 219 221 233
71 78 99 121 148 156 159 129 145 144 147 152 157 161 169 145 160 168 169 169 172 170 168 175 184 194 195 201 193 194 178 176 177 184 191 208 216 230 234 239 262 236 211 203 200 202 205 208 218 223 223 235 247 255
49 63 71 103 94 99 110 97 147 150 119 125 141 168 173 165 178 180 193 197 189 189 191 199 205 207 213 206 212 210 201 196 197 209 220 230 240 248 246 260 253 249 230 229 229 232 237 233 236 242 246 252 257 263
41 41 41 96 72 114 84 56 113 119 144 163 168 161 138 190 196 199 216 218 210 215 219 222 223 219 218 220 221 228 227 227 229 233 241 246 252 258 265 266 265 265 253 245 246 245 244 249 249 249 254 258 261 264
33 32 31 33 42 88 31 26 24 26 165 194 205 246 222 221 231 238 239 240 231 234 237 234 231 227 226 228 233 236 237 239 242 248 256 262 267 269 272 271 267 263 265 259 256 257 257 259 257 257 258 264 269 273
17 13 8 4 3 3 354 345 337 309 324 277 255 268 239 252 259 258 256 256 251 251 252 252 247 243 241 244 244 244 250 253 255 260 266 269 270 270 271 271 270 268 263 264 263 261 261 263 263 262 264 266 269 271
6 6 6 358 312 312 305 314 307 299 294 289 280 284 282 282 264 274 264 265 263 259 254 252 253 254 253 257 256 257 256 258 264 269 271 266 268 269 269 271 272 265 264 265 264 264 264 266 268 270 272 273 274 275
357 354 348 347 345 342 291 273 272 273 281 283 282 280 279 274 274 274 273 271 269 266 261 257 256 259 261 262 260 261 261 264 268 271 268 271 275 273 271 272 271 268 265 261 261 263 264 266 268 270 272 274 275 276
355 345 339 332 328 325 323 319 314 307 282 270 267 265 266 270 270 271 269 270 271 271 268 264 263 263 261 259 264 264 263 263 265 266 267 266 268 270 270 271 272 272 266 264 264 265 268 270 271 272 273 274 277 279
355 345 338 329 322 314 310 310 310 305 301 298 288 275 283 275 270 266 264 265 267 269 269 267 265 262 262 263 261 262 261 262 261 263 264 265 266 266 269 270 269 270 271 266 266 266 268 269 272 274 277 279 281 283
352 343 338 332 324 316 311 306 300 298 298 298 296 294 293 290 287 282 278 270 270 270 269 269 268 265 264 262 262 261 262 261 261 263 264 265 265 267 268 270 271 271 270 272 269 268 270 272 274 277 279 281 283 285
349 343 337 330 326 318 314 311 302 300 298 297 296 295 293 292 291 293 291 285 284 275 271 272 273 272 269 267 268 268 268 261 261 260 261 262 263 264 265 267 269 270 271 271 269 269 269 271 276 279 281 283 285 286
344 343 337 332 324 320 318 313 305 303 301 300 300 299 297 296 299 296 294 293 292 290 282 276 275 272 271 271 269 267 264 262 261 264 265 262 257 257 260 262 264 265 267 268 268 268 270 272 274 276 278 281 283 285
340 339 336 330 325 322 318 314 310 306 301 302 301 300 296 299 298 295 296 298 296 293 291 285 279 276 274 272 270 269 268 267 265 265 263 260 260 249 253 252 256 259 262 264 266 267 270 272 274 276 279 281 282 284
335 334 332 329 325 322 320 315 312 307 304 303 302 301 302 303 301 299 299 298 299 298 295 291 285 284 282 277 275 273 269 267 268 261 243 245 244 243 243 248 251 252 254 259 264 267 267 269 272 274 276 278 280 282
331 329 327 324 322 319 319 317 313 311 306 305 303 302 304 305 305 303 302 302 303 304 298 296 294 289 287 287 283 285 269 256 246 239 235 235 241 242 241 241 244 249 253 257 258 261 263 266 269 272 275 276 280 284